QPF
0.03 0.03 0.03 0.03 0.05 0.09 0.10 0.07 0.06 0.06 0.05 0.07 0.08 0.05 0.07 0.08 0.07 0.06 0.04 0.03 0.03 0.04 0.05 0.04 0.03 0.03 0.03 0.03 0.04 0.04 0.03 0.04 0.04 0.04 0.03 0.03 0.03 0.03 0.03 0.03 0.04 0.03 0.02
0.02 0.03 0.04 0.03 0.05 0.07 0.07 0.08 0.07 0.07 0.05 0.05 0.05 0.04 0.05 0.06 0.06 0.07 0.05 0.04 0.04 0.04 0.05 0.06 0.07 0.05 0.04 0.03 0.04 0.05 0.06 0.05 0.05 0.05 0.05 0.04 0.03 0.03 0.03 0.04 0.04 0.03 0.02
0.03 0.04 0.03 0.03 0.02 0.05 0.06 0.05 0.06 0.05 0.05 0.05 0.04 0.04 0.05 0.05 0.06 0.07 0.07 0.06 0.04 0.06 0.08 0.09 0.08 0.06 0.07 0.07 0.08 0.07 0.05 0.04 0.04 0.05 0.05 0.04 0.03 0.02 0.03 0.03 0.04 0.03 0.02
0.04 0.04 0.03 0.02 0.02 0.03 0.05 0.04 0.05 0.05 0.07 0.06 0.04 0.04 0.05 0.06 0.07 0.08 0.08 0.08 0.07 0.07 0.08 0.09 0.07 0.06 0.07 0.08 0.08 0.07 0.07 0.06 0.05 0.05 0.05 0.05 0.04 0.03 0.03 0.03 0.03 0.03 0.03
0.04 0.04 0.03 0.03 0.03 0.03 0.04 0.04 0.05 0.07 0.06 0.05 0.04 0.07 0.11 0.07 0.08 0.08 0.07 0.07 0.10 0.15 0.09 0.09 0.10 0.10 0.07 0.07 0.07 0.06 0.07 0.08 0.08 0.07 0.07 0.08 0.07 0.05 0.04 0.03 0.03 0.03 0.03
0.04 0.05 0.05 0.04 0.04 0.03 0.03 0.03 0.04 0.06 0.05 0.05 0.04 0.06 0.08 0.07 0.08 0.08 0.06 0.05 0.07 0.08 0.09 0.10 0.11 0.10 0.09 0.08 0.06 0.06 0.06 0.07 0.09 0.09 0.09 0.09 0.07 0.07 0.07 0.06 0.04 0.04 0.03
0.04 0.05 0.05 0.04 0.04 0.04 0.04 0.05 0.05 0.08 0.09 0.08 0.05 0.05 0.05 0.05 0.05 0.07 0.07 0.07 0.08 0.09 0.12 0.13 0.14 0.13 0.12 0.11 0.10 0.09 0.08 0.07 0.07 0.07 0.06 0.06 0.05 0.06 0.07 0.07 0.07 0.07 0.06
0.05 0.04 0.05 0.05 0.04 0.04 0.04 0.05 0.07 0.07 0.06 0.06 0.06 0.06 0.05 0.05 0.04 0.06 0.08 0.08 0.09 0.10 0.10 0.08 0.09 0.09 0.10 0.11 0.12 0.10 0.07 0.06 0.06 0.06 0.05 0.04 0.04 0.04 0.04 0.06 0.06 0.07 0.08
0.04 0.06 0.06 0.06 0.06 0.04 0.04 0.05 0.06 0.05 0.05 0.06 0.07 0.07 0.06 0.05 0.04 0.05 0.06 0.06 0.07 0.08 0.09 0.08 0.06 0.04 0.05 0.09 0.11 0.10 0.08 0.08 0.08 0.06 0.04 0.04 0.04 0.03 0.03 0.05 0.04 0.04 0.04
0.03 0.06 0.09 0.10 0.08 0.04 0.05 0.04 0.05 0.06 0.06 0.05 0.08 0.08 0.06 0.06 0.06 0.04 0.04 0.04 0.05 0.07 0.07 0.07 0.07 0.07 0.07 0.08 0.10 0.12 0.10 0.09 0.09 0.08 0.06 0.05 0.05 0.05 0.05 0.04 0.03 0.03 0.03
0.05 0.06 0.08 0.08 0.08 0.07 0.05 0.05 0.06 0.06 0.04 0.05 0.07 0.08 0.08 0.07 0.08 0.06 0.05 0.04 0.04 0.06 0.05 0.06 0.07 0.07 0.09 0.11 0.12 0.14 0.14 0.11 0.09 0.08 0.10 0.12 0.10 0.08 0.05 0.04 0.03 0.03 0.04
0.03 0.04 0.04 0.07 0.09 0.08 0.06 0.06 0.06 0.07 0.07 0.07 0.08 0.10 0.10 0.08 0.07 0.06 0.05 0.05 0.04 0.04 0.04 0.05 0.06 0.07 0.10 0.14 0.17 0.16 0.15 0.14 0.11 0.10 0.12 0.12 0.11 0.09 0.07 0.07 0.05 0.05 0.05
0.02 0.01 0.03 0.06 0.07 0.05 0.04 0.05 0.05 0.04 0.05 0.06 0.08 0.08 0.09 0.08 0.07 0.08 0.07 0.05 0.05 0.04 0.04 0.04 0.06 0.07 0.07 0.09 0.12 0.14 0.15 0.15 0.14 0.13 0.12 0.12 0.11 0.09 0.08 0.10 0.10 0.07 0.05
0.01 0.01 0.02 0.04 0.04 0.04 0.03 0.04 0.04 0.04 0.04 0.05 0.05 0.06 0.07 0.07 0.09 0.10 0.07 0.06 0.05 0.05 0.04 0.03 0.03 0.04 0.08 0.10 0.12 0.14 0.14 0.12 0.11 0.10 0.10 0.10 0.11 0.10 0.09 0.09 0.09 0.08 0.07
0.01 0.01 0.02 0.03 0.03 0.03 0.03 0.03 0.04 0.03 0.04 0.04 0.04 0.05 0.05 0.06 0.09 0.10 0.09 0.07 0.07 0.06 0.05 0.03 0.03 0.03 0.04 0.05 0.09 0.12 0.13 0.15 0.14 0.11 0.09 0.08 0.09 0.09 0.09 0.07 0.07 0.05 0.05
0.01 0.01 0.02 0.02 0.01 0.01 0.01 0.02 0.03 0.03 0.04 0.03 0.03 0.04 0.03 0.04 0.05 0.06 0.06 0.05 0.05 0.05 0.04 0.04 0.03 0.04 0.04 0.04 0.06 0.08 0.11 0.11 0.12 0.12 0.09 0.06 0.06 0.07 0.07 0.06 0.06 0.04 0.04
0.01 0.01 0.01 0.01 0.01 0.00 0.01 0.01 0.02 0.03 0.04 0.04 0.03 0.02 0.02 0.03 0.03 0.03 0.03 0.04 0.05 0.05 0.05 0.05 0.05 0.05 0.05 0.05 0.07 0.07 0.07 0.05 0.04 0.06 0.06 0.04 0.04 0.04 0.03 0.03 0.03 0.02 0.02
0.00 0.01 0.01 0.01 0.00 0.00 0.00 0.01 0.01 0.02 0.03 0.04 0.03 0.02 0.02 0.03 0.03 0.03 0.03 0.04 0.04 0.04 0.05 0.05 0.05 0.04 0.03 0.03 0.05 0.05 0.05 0.03 0.03 0.04 0.03 0.03 0.03 0.03 0.03 0.03 0.02 0.02 0.01
0.00 0.01 0.01 0.01 0.00 0.00 0.00 0.00 0.00 0.01 0.01 0.02 0.03 0.03 0.03 0.03 0.03 0.04 0.05 0.05 0.05 0.04 0.04 0.04 0.05 0.04 0.04 0.04 0.04 0.06 0.06 0.05 0.04 0.05 0.05 0.04 0.03 0.03 0.03 0.02 0.02 0.02 0.03
0.01 0.01 0.01 0.01 0.01 0.00 0.00 0.00 0.01 0.02 0.02 0.02 0.02 0.02 0.02 0.03 0.03 0.04 0.05 0.04 0.04 0.04 0.04 0.05 0.05 0.05 0.04 0.04 0.03 0.05 0.06 0.06 0.06 0.06 0.06 0.05 0.05 0.04 0.03 0.02 0.01 0.02 0.02
0.01 0.01 0.02 0.02 0.01 0.01 0.01 0.01 0.01 0.03 0.03 0.02 0.01 0.01 0.01 0.02 0.03 0.04 0.05 0.05 0.05 0.04 0.04 0.04 0.04 0.04 0.04 0.04 0.02 0.02 0.03 0.05 0.06 0.05 0.05 0.05 0.04 0.03 0.03 0.01 0.01 0.01 0.00
0.01 0.02 0.02 0.02 0.01 0.01 0.02 0.02 0.03 0.03 0.02 0.01 0.01 0.01 0.01 0.03 0.03 0.03 0.05 0.06 0.05 0.05 0.05 0.06 0.07 0.06 0.04 0.04 0.03 0.02 0.02 0.04 0.07 0.07 0.05 0.04 0.04 0.04 0.03 0.01 0.00 0.00 0.00
0.02 0.02 0.01 0.02 0.01 0.01 0.02 0.03 0.03 0.03 0.02 0.01 0.01 0.01 0.01 0.02 0.03 0.03 0.04 0.05 0.04 0.04 0.05 0.07 0.07 0.05 0.03 0.03 0.03 0.03 0.03 0.04 0.06 0.07 0.05 0.05 0.05 0.04 0.03 0.01 0.01 0.00 0.00
0.02 0.01 0.01 0.02 0.01 0.01 0.02 0.02 0.03 0.02 0.01 0.01 0.01 0.02 0.02 0.02 0.02 0.02 0.01 0.01 0.02 0.02 0.03 0.04 0.03 0.03 0.03 0.03 0.03 0.03 0.03 0.03 0.05 0.07 0.06 0.05 0.03 0.02 0.01 0.01 0.01 0.01 0.01
0.01 0.01 0.01 0.01 0.01 0.01 0.02 0.02 0.03 0.02 0.01 0.01 0.03 0.03 0.02 0.02 0.02 0.01 0.01 0.01 0.01 0.01 0.01 0.02 0.02 0.03 0.04 0.03 0.02 0.02 0.02 0.03 0.04 0.04 0.03 0.03 0.02 0.01 0.01 0.01 0.01 0.01 0.02
0.01 0.01 0.00 0.01 0.02 0.01 0.01 0.02 0.02 0.01 0.01 0.01 0.02 0.01 0.02 0.01 0.01 0.01 0.01 0.00 0.00 0.00 0.00 0.01 0.02 0.02 0.02 0.02 0.02 0.02 0.02 0.02 0.03 0.03 0.03 0.03 0.02 0.02 0.01 0.01 0.01 0.01 0.02
MSLP
1016.10 1016.18 1016.16 1016.04 1015.86 1015.66 1015.47 1015.33 1015.23 1015.18 1015.14 1015.10 1015.04 1014.96 1014.86 1014.76 1014.71 1014.71 1014.80 1014.97 1015.21 1015.50 1015.82 1016.13 1016.41 1016.66 1016.86 1017.02 1017.16 1017.28 1017.39 1017.50 1017.60 1017.71 1017.81 1017.91 1017.99 1018.07 1018.14 1018.21 1018.28 1018.36 1018.46
1016.11 1016.19 1016.16 1016.04 1015.86 1015.66 1015.47 1015.34 1015.25 1015.22 1015.22 1015.21 1015.19 1015.15 1015.08 1015.00 1014.95 1014.95 1015.03 1015.18 1015.40 1015.68 1015.97 1016.26 1016.50 1016.69 1016.83 1016.91 1016.96 1017.00 1017.05 1017.14 1017.26 1017.41 1017.58 1017.76 1017.92 1018.06 1018.17 1018.26 1018.32 1018.38 1018.45
1016.13 1016.20 1016.18 1016.08 1015.93 1015.76 1015.60 1015.49 1015.44 1015.45 1015.49 1015.54 1015.58 1015.59 1015.57 1015.53 1015.50 1015.51 1015.57 1015.70 1015.88 1016.09 1016.31 1016.49 1016.62 1016.68 1016.67 1016.61 1016.53 1016.47 1016.46 1016.52 1016.67 1016.89 1017.16 1017.45 1017.72 1017.96 1018.13 1018.25 1018.32 1018.36 1018.40
1016.17 1016.25 1016.25 1016.19 1016.08 1015.96 1015.86 1015.80 1015.80 1015.85 1015.94 1016.05 1016.14 1016.22 1016.26 1016.29 1016.30 1016.33 1016.39 1016.48 1016.59 1016.70 1016.78 1016.81 1016.76 1016.62 1016.41 1016.16 1015.92 1015.74 1015.65 1015.70 1015.88 1016.18 1016.57 1016.99 1017.39 1017.73 1017.98 1018.14 1018.22 1018.25 1018.27
1016.27 1016.34 1016.37 1016.36 1016.32 1016.26 1016.22 1016.21 1016.25 1016.35 1016.48 1016.63 1016.79 1016.93 1017.05 1017.14 1017.22 1017.29 1017.36 1017.41 1017.45 1017.45 1017.37 1017.21 1016.93 1016.56 1016.11 1015.65 1015.23 1014.91 1014.75 1014.77 1015.00 1015.39 1015.89 1016.43 1016.96 1017.40 1017.72 1017.92 1018.01 1018.02 1018.02
1016.44 1016.51 1016.56 1016.59 1016.60 1016.61 1016.62 1016.65 1016.73 1016.84 1016.99 1017.18 1017.37 1017.58 1017.77 1017.95 1018.11 1018.24 1018.34 1018.39 1018.38 1018.27 1018.04 1017.68 1017.18 1016.57 1015.89 1015.22 1014.62 1014.17 1013.93 1013.93 1014.19 1014.65 1015.25 1015.90 1016.52 1017.04 1017.41 1017.63 1017.72 1017.71 1017.68
1016.71 1016.76 1016.81 1016.87 1016.93 1016.97 1017.01 1017.06 1017.14 1017.24 1017.39 1017.57 1017.79 1018.04 1018.30 1018.57 1018.83 1019.05 1019.21 1019.30 1019.27 1019.10 1018.76 1018.24 1017.56 1016.75 1015.88 1015.02 1014.27 1013.71 1013.40 1013.38 1013.65 1014.15 1014.81 1015.52 1016.19 1016.75 1017.15 1017.36 1017.42 1017.39 1017.32
1017.09 1017.09 1017.14 1017.20 1017.27 1017.32 1017.37 1017.40 1017.44 1017.50 1017.61 1017.76 1017.98 1018.26 1018.58 1018.93 1019.30 1019.63 1019.89 1020.05 1020.06 1019.89 1019.50 1018.91 1018.12 1017.18 1016.18 1015.20 1014.34 1013.70 1013.33 1013.28 1013.54 1014.04 1014.70 1015.43 1016.10 1016.65 1017.02 1017.21 1017.23 1017.15 1017.04
1017.55 1017.51 1017.52 1017.57 1017.62 1017.66 1017.67 1017.66 1017.63 1017.63 1017.66 1017.76 1017.95 1018.23 1018.59 1019.02 1019.49 1019.94 1020.33 1020.60 1020.70 1020.59 1020.25 1019.66 1018.86 1017.89 1016.84 1015.82 1014.91 1014.22 1013.82 1013.72 1013.94 1014.40 1015.02 1015.70 1016.32 1016.82 1017.14 1017.26 1017.23 1017.11 1016.96
1018.06 1017.97 1017.94 1017.95 1017.97 1017.97 1017.94 1017.86 1017.76 1017.67 1017.61 1017.64 1017.78 1018.04 1018.42 1018.90 1019.46 1020.02 1020.54 1020.94 1021.17 1021.19 1020.95 1020.46 1019.73 1018.83 1017.83 1016.84 1015.95 1015.26 1014.83 1014.69 1014.85 1015.23 1015.76 1016.34 1016.87 1017.28 1017.52 1017.58 1017.50 1017.33 1017.15
1018.57 1018.43 1018.37 1018.34 1018.33 1018.29 1018.20 1018.06 1017.88 1017.70 1017.57 1017.51 1017.58 1017.80 1018.17 1018.68 1019.28 1019.93 1020.56 1021.09 1021.47 1021.64 1021.56 1021.23 1020.66 1019.90 1019.03 1018.14 1017.32 1016.67 1016.23 1016.06 1016.13 1016.42 1016.83 1017.28 1017.69 1017.99 1018.15 1018.15 1018.02 1017.82 1017.62
1019.03 1018.86 1018.77 1018.72 1018.68 1018.61 1018.48 1018.30 1018.07 1017.82 1017.61 1017.49 1017.49 1017.65 1017.98 1018.47 1019.08 1019.77 1020.47 1021.10 1021.61 1021.93 1022.04 1021.90 1021.53 1020.98 1020.29 1019.55 1018.85 1018.26 1017.84 1017.63 1017.63 1017.79 1018.08 1018.40 1018.68 1018.88 1018.96 1018.91 1018.75 1018.55 1018.34
1019.40 1019.23 1019.12 1019.07 1019.02 1018.94 1018.80 1018.60 1018.35 1018.07 1017.81 1017.63 1017.58 1017.67 1017.94 1018.37 1018.94 1019.62 1020.33 1021.01 1021.61 1022.07 1022.34 1022.40 1022.26 1021.92 1021.45 1020.89 1020.34 1019.83 1019.45 1019.21 1019.14 1019.20 1019.36 1019.55 1019.73 1019.85 1019.87 1019.79 1019.63 1019.43 1019.23
1019.67 1019.51 1019.42 1019.37 1019.33 1019.26 1019.15 1018.97 1018.73 1018.45 1018.19 1017.98 1017.88 1017.91 1018.10 1018.45 1018.94 1019.54 1020.21 1020.89 1021.53 1022.07 1022.48 1022.71 1022.77 1022.65 1022.39 1022.03 1021.63 1021.23 1020.89 1020.65 1020.52 1020.50 1020.55 1020.64 1020.74 1020.79 1020.78 1020.70 1020.55 1020.38 1020.20
1019.87 1019.73 1019.66 1019.63 1019.62 1019.59 1019.51 1019.38 1019.19 1018.95 1018.71 1018.51 1018.38 1018.36 1018.47 1018.71 1019.09 1019.59 1020.17 1020.79 1021.41 1021.99 1022.47 1022.84 1023.06 1023.14 1023.07 1022.89 1022.63 1022.35 1022.07 1021.84 1021.68 1021.59 1021.58 1021.60 1021.63 1021.65 1021.64 1021.57 1021.46 1021.32 1021.17
1020.03 1019.92 1019.86 1019.86 1019.88 1019.90 1019.88 1019.81 1019.68 1019.51 1019.33 1019.15 1019.02 1018.96 1019.00 1019.15 1019.41 1019.78 1020.24 1020.77 1021.32 1021.88 1022.39 1022.84 1023.18 1023.39 1023.49 1023.46 1023.34 1023.16 1022.95 1022.75 1022.59 1022.48 1022.42 1022.40 1022.41 1022.42 1022.41 1022.37 1022.30 1022.19 1022.07
1020.20 1020.11 1020.08 1020.10 1020.14 1020.19 1020.22 1020.22 1020.17 1020.07 1019.95 1019.83 1019.72 1019.65 1019.64 1019.71 1019.86 1020.11 1020.44 1020.84 1021.30 1021.80 1022.30 1022.77 1023.17 1023.48 1023.69 1023.79 1023.79 1023.70 1023.57 1023.41 1023.27 1023.16 1023.09 1023.06 1023.06 1023.08 1023.09 1023.08 1023.04 1022.97 1022.86
1020.40 1020.34 1020.32 1020.35 1020.41 1020.48 1020.55 1020.59 1020.60 1020.58 1020.53 1020.46 1020.39 1020.33 1020.30 1020.32 1020.39 1020.53 1020.74 1021.03 1021.39 1021.80 1022.25 1022.70 1023.12 1023.48 1023.76 1023.94 1024.03 1024.03 1023.97 1023.87 1023.77 1023.69 1023.63 1023.62 1023.63 1023.66 1023.69 1023.70 1023.68 1023.63 1023.54
1020.64 1020.60 1020.60 1020.63 1020.69 1020.76 1020.84 1020.91 1020.96 1020.99 1021.00 1020.99 1020.97 1020.94 1020.92 1020.92 1020.94 1021.01 1021.13 1021.31 1021.57 1021.89 1022.26 1022.66 1023.06 1023.43 1023.74 1023.97 1024.12 1024.19 1024.20 1024.17 1024.12 1024.08 1024.07 1024.08 1024.11 1024.15 1024.20 1024.22 1024.21 1024.17 1024.09
1020.89 1020.88 1020.89 1020.92 1020.97 1021.03 1021.10 1021.16 1021.23 1021.29 1021.34 1021.38 1021.41 1021.43 1021.44 1021.44 1021.45 1021.48 1021.54 1021.65 1021.82 1022.05 1022.34 1022.66 1023.01 1023.35 1023.65 1023.90 1024.09 1024.22 1024.29 1024.33 1024.34 1024.36 1024.39 1024.44 1024.50 1024.57 1024.62 1024.64 1024.64 1024.59 1024.51
1021.06 1021.10 1021.14 1021.17 1021.21 1021.25 1021.29 1021.34 1021.40 1021.46 1021.54 1021.62 1021.69 1021.76 1021.81 1021.85 1021.87 1021.89 1021.93 1021.99 1022.09 1022.24 1022.44 1022.68 1022.96 1023.24 1023.51 1023.75 1023.96 1024.12 1024.25 1024.35 1024.43 1024.52 1024.60 1024.70 1024.79 1024.87 1024.93 1024.95 1024.94 1024.88 1024.80
1021.10 1021.21 1021.28 1021.34 1021.37 1021.39 1021.41 1021.43 1021.46 1021.52 1021.60 1021.70 1021.81 1021.93 1022.03 1022.11 1022.17 1022.21 1022.24 1022.28 1022.33 1022.41 1022.53 1022.69 1022.88 1023.10 1023.32 1023.53 1023.74 1023.92 1024.09 1024.24 1024.40 1024.54 1024.69 1024.83 1024.95 1025.05 1025.11 1025.13 1025.11 1025.05 1024.96
1020.93 1021.12 1021.26 1021.35 1021.40 1021.41 1021.41 1021.40 1021.41 1021.45 1021.53 1021.64 1021.79 1021.94 1022.10 1022.23 1022.34 1022.41 1022.46 1022.49 1022.51 1022.54 1022.60 1022.68 1022.79 1022.93 1023.09 1023.27 1023.46 1023.65 1023.85 1024.05 1024.26 1024.47 1024.67 1024.85 1025.01 1025.12 1025.19 1025.20 1025.17 1025.10 1025.01
1020.52 1020.80 1021.01 1021.16 1021.24 1021.26 1021.26 1021.24 1021.23 1021.26 1021.34 1021.47 1021.64 1021.83 1022.03 1022.22 1022.38 1022.49 1022.56 1022.60 1022.62 1022.62 1022.63 1022.65 1022.70 1022.77 1022.88 1023.02 1023.18 1023.37 1023.59 1023.82 1024.07 1024.33 1024.57 1024.79 1024.98 1025.11 1025.18 1025.19 1025.15 1025.07 1024.97
1019.88 1020.25 1020.54 1020.75 1020.88 1020.94 1020.95 1020.94 1020.94 1020.98 1021.07 1021.21 1021.40 1021.63 1021.87 1022.10 1022.31 1022.47 1022.58 1022.65 1022.67 1022.67 1022.65 1022.64 1022.65 1022.68 1022.75 1022.85 1022.99 1023.18 1023.40 1023.65 1023.92 1024.21 1024.48 1024.72 1024.92 1025.06 1025.13 1025.14 1025.09 1025.00 1024.90
1019.05 1019.50 1019.87 1020.15 1020.34 1020.45 1020.51 1020.53 1020.56 1020.62 1020.73 1020.89 1021.11 1021.37 1021.65 1021.93 1022.18 1022.39 1022.54 1022.64 1022.69 1022.71 1022.70 1022.69 1022.68 1022.70 1022.74 1022.83 1022.96 1023.13 1023.35 1023.60 1023.88 1024.17 1024.45 1024.70 1024.90 1025.04 1025.11 1025.11 1025.05 1024.95 1024.85
Thickness
5758 5758 5757 5757 5757 5756 5755 5755 5755 5755 5754 5753 5752 5752 5750 5749 5748 5747 5745 5744 5743 5742 5741 5739 5738 5737 5735 5733 5732 5730 5729 5727 5726 5725 5723 5722 5721 5720 5719 5718 5717 5717 5715
5759 5759 5758 5758 5757 5757 5756 5755 5755 5754 5754 5753 5752 5751 5750 5749 5748 5747 5745 5744 5742 5742 5740 5739 5738 5737 5735 5734 5732 5730 5729 5727 5726 5724 5723 5721 5720 5719 5718 5717 5716 5715 5714
5761 5760 5759 5758 5758 5758 5757 5756 5755 5754 5753 5752 5751 5750 5749 5749 5748 5746 5745 5743 5742 5741 5740 5738 5737 5736 5735 5734 5732 5730 5729 5727 5725 5724 5722 5720 5719 5717 5716 5715 5714 5713 5712
5762 5761 5760 5759 5759 5758 5757 5755 5754 5752 5750 5750 5749 5749 5748 5748 5747 5746 5744 5742 5741 5740 5739 5738 5737 5735 5734 5733 5732 5730 5728 5726 5724 5723 5721 5719 5717 5715 5714 5713 5711 5711 5710
5763 5762 5760 5760 5759 5757 5756 5755 5753 5751 5748 5748 5747 5747 5747 5747 5746 5744 5742 5741 5740 5739 5738 5736 5735 5734 5733 5732 5730 5729 5727 5725 5723 5721 5720 5718 5716 5714 5712 5710 5709 5708 5708
5764 5761 5760 5759 5758 5756 5754 5753 5751 5750 5748 5747 5747 5745 5744 5745 5744 5743 5742 5740 5739 5737 5736 5734 5733 5732 5730 5730 5729 5727 5726 5724 5721 5719 5718 5716 5714 5712 5710 5708 5707 5706 5705
5763 5761 5760 5759 5757 5755 5753 5753 5750 5747 5746 5746 5741 5738 5739 5741 5741 5741 5740 5738 5737 5735 5733 5732 5730 5729 5728 5727 5725 5724 5723 5722 5719 5717 5715 5713 5711 5709 5708 5706 5705 5704 5703
5764 5763 5760 5758 5756 5754 5752 5751 5749 5746 5744 5745 5739 5733 5729 5730 5734 5738 5736 5735 5734 5732 5731 5729 5727 5726 5724 5723 5722 5721 5720 5719 5717 5715 5712 5710 5708 5706 5705 5703 5702 5701 5701
5764 5762 5760 5758 5756 5754 5751 5750 5749 5746 5742 5743 5742 5735 5727 5722 5725 5729 5731 5731 5730 5729 5727 5726 5724 5722 5720 5719 5718 5717 5716 5715 5713 5711 5709 5707 5704 5702 5700 5699 5698 5698 5697
5763 5761 5759 5758 5756 5754 5752 5751 5750 5747 5744 5740 5740 5739 5736 5732 5723 5720 5723 5725 5726 5724 5723 5722 5720 5718 5716 5714 5713 5712 5711 5710 5709 5707 5705 5702 5700 5698 5696 5695 5694 5693 5693
5762 5761 5759 5757 5755 5753 5752 5750 5748 5747 5744 5741 5738 5737 5734 5732 5728 5720 5715 5717 5718 5719 5718 5717 5715 5714 5712 5711 5709 5708 5707 5705 5704 5702 5700 5698 5695 5693 5692 5691 5689 5688 5687
5760 5759 5758 5756 5754 5753 5751 5749 5748 5746 5744 5741 5739 5736 5733 5729 5726 5721 5715 5712 5711 5712 5713 5712 5711 5709 5708 5706 5706 5704 5702 5700 5698 5696 5694 5692 5690 5688 5687 5685 5684 5682 5681
5758 5757 5757 5755 5753 5752 5750 5748 5746 5744 5742 5740 5737 5735 5733 5731 5729 5724 5718 5711 5708 5707 5707 5706 5706 5705 5703 5702 5700 5699 5697 5695 5693 5690 5688 5686 5684 5682 5681 5679 5677 5676 5674
5759 5758 5756 5754 5752 5750 5748 5746 5744 5742 5740 5737 5736 5733 5731 5730 5728 5724 5719 5712 5705 5701 5700 5699 5700 5699 5698 5697 5695 5693 5691 5689 5687 5684 5682 5680 5677 5676 5674 5672 5671 5668 5667
5759 5757 5755 5752 5751 5749 5747 5744 5741 5738 5736 5734 5732 5731 5728 5726 5725 5723 5720 5715 5707 5697 5694 5695 5694 5694 5693 5692 5690 5687 5685 5682 5680 5678 5676 5674 5671 5669 5668 5666 5663 5661 5659
5758 5756 5753 5751 5748 5747 5744 5741 5739 5736 5733 5731 5729 5727 5725 5723 5721 5719 5717 5713 5709 5702 5694 5693 5691 5691 5689 5687 5684 5682 5679 5677 5674 5672 5670 5668 5665 5663 5661 5658 5656 5653 5651
5757 5754 5751 5748 5746 5743 5741 5738 5735 5733 5730 5728 5726 5724 5721 5719 5717 5715 5713 5710 5706 5701 5694 5690 5689 5687 5684 5681 5678 5675 5673 5671 5668 5666 5664 5662 5659 5656 5654 5651 5648 5646 5644
5756 5752 5749 5746 5743 5740 5738 5735 5732 5730 5727 5724 5722 5720 5718 5717 5714 5711 5708 5705 5701 5698 5693 5686 5683 5681 5678 5675 5672 5669 5666 5664 5662 5660 5657 5655 5652 5650 5647 5644 5641 5639 5636
5753 5750 5747 5743 5740 5737 5735 5732 5729 5727 5724 5721 5720 5717 5715 5713 5709 5707 5704 5701 5697 5694 5690 5684 5679 5676 5673 5670 5666 5663 5660 5658 5656 5653 5651 5648 5646 5643 5640 5637 5634 5632 5629
5751 5748 5744 5741 5738 5735 5732 5729 5727 5723 5720 5718 5717 5715 5712 5709 5706 5703 5700 5696 5693 5688 5684 5679 5674 5671 5668 5664 5661 5657 5653 5652 5650 5647 5644 5642 5639 5636 5634 5631 5628 5625 5623
5750 5746 5742 5738 5735 5733 5730 5727 5724 5721 5717 5715 5713 5712 5710 5708 5705 5701 5698 5693 5690 5684 5679 5674 5669 5666 5662 5658 5655 5652 5649 5646 5643 5642 5638 5636 5633 5630 5627 5624 5621 5618 5616
5747 5743 5739 5735 5732 5730 5728 5725 5722 5718 5715 5712 5709 5708 5706 5703 5701 5698 5695 5692 5689 5683 5676 5671 5666 5662 5659 5656 5653 5650 5645 5640 5636 5636 5632 5629 5627 5623 5621 5618 5615 5612 5609
5743 5739 5736 5733 5730 5728 5725 5722 5719 5715 5712 5708 5706 5703 5702 5699 5696 5693 5690 5687 5684 5681 5677 5671 5665 5661 5657 5655 5650 5645 5641 5637 5634 5632 5627 5622 5620 5617 5615 5612 5609 5607 5603
5741 5737 5734 5731 5727 5725 5723 5720 5716 5712 5708 5705 5702 5700 5696 5693 5691 5687 5684 5680 5677 5674 5672 5668 5665 5661 5658 5654 5649 5645 5639 5634 5630 5626 5623 5616 5613 5610 5610 5607 5604 5601 5598
5738 5735 5732 5728 5724 5722 5720 5717 5713 5708 5704 5701 5698 5696 5693 5689 5686 5683 5679 5674 5670 5668 5666 5664 5661 5658 5654 5651 5646 5639 5633 5627 5622 5619 5617 5612 5608 5605 5603 5601 5599 5596 5593
5737 5733 5729 5726 5723 5719 5718 5715 5711 5705 5700 5696 5693 5691 5689 5686 5682 5679 5674 5669 5664 5661 5659 5656 5653 5651 5648 5644 5641 5636 5630 5623 5617 5614 5612 5608 5604 5599 5595 5596 5594 5591 5588